Hourly Weather Rudka

Today, 18 April, Sunday

Time Temperature Precipitation Wind Pressure Humidity
00:00 +6°C° 0 mm 2 mps 746 mmHg 80%
01:00 +7°C° 0 mm 1 mps 746 mmHg 80%
02:00 +7°C° 0 mm 1 mps 746 mmHg 80%
03:00 +6°C° 0 mm 1 mps 746 mmHg 81%
04:00 +6°C° 0 mm 1 mps 745 mmHg 83%
05:00 +6°C° 0 mm 1 mps 745 mmHg 85%
06:00 +5°C° 0.6 mm 2 mps 745 mmHg 87%
07:00 +5°C° 0.6 mm 2 mps 745 mmHg 88%
08:00 +5°C° 0.6 mm 2 mps 745 mmHg 89%
09:00 +5°C° 0.6 mm 2 mps 745 mmHg 90%
10:00 +5°C° 0.6 mm 2 mps 745 mmHg 90%
11:00 +5°C° 0.6 mm 2 mps 745 mmHg 91%
12:00 +5°C° 0.8 mm 2 mps 746 mmHg 91%
13:00 +6°C° 0.8 mm 1 mps 746 mmHg 91%
14:00 +6°C° 0.8 mm 1 mps 746 mmHg 91%
15:00 +6°C° 0.3 mm 1 mps 746 mmHg 90%
16:00 +6°C° 0.3 mm 1 mps 746 mmHg 89%
17:00 +5°C° 0.3 mm 0 mps 746 mmHg 88%
18:00 +6°C° 0 mm 1 mps 746 mmHg 88%
19:00 +6°C° 0 mm 1 mps 746 mmHg 89%
20:00 +6°C° 0 mm 1 mps 746 mmHg 89%
21:00 +6°C° 0 mm 1 mps 746 mmHg 89%
22:00 +5°C° 0 mm 1 mps 746 mmHg 89%
23:00 +5°C° 0 mm 1 mps 746 mmHg 89%

Tomorrow, 19 April, Monday

Time Temperature Precipitation Wind Pressure Humidity
00:00 +5°C° 0 mm 1 mps 746 mmHg 90%
01:00 +5°C° 0 mm 1 mps 746 mmHg 91%
02:00 +4°C° 0 mm 1 mps 746 mmHg 91%
03:00 +4°C° 0 mm 1 mps 746 mmHg 92%
04:00 +3°C° 0 mm 2 mps 746 mmHg 92%
05:00 +3°C° 0 mm 2 mps 746 mmHg 92%
06:00 +5°C° 0 mm 2 mps 746 mmHg 87%
07:00 +6°C° 0 mm 2 mps 746 mmHg 82%
08:00 +7°C° 0 mm 2 mps 746 mmHg 77%
09:00 +8°C° 0 mm 3 mps 746 mmHg 72%
10:00 +9°C° 0 mm 3 mps 746 mmHg 67%
11:00 +10°C° 0 mm 3 mps 746 mmHg 62%
12:00 +10°C° 0 mm 3 mps 745 mmHg 63%
13:00 +10°C° 0 mm 3 mps 745 mmHg 64%
14:00 +10°C° 0 mm 3 mps 745 mmHg 64%
15:00 +10°C° 0 mm 3 mps 745 mmHg 66%
16:00 +10°C° 0 mm 3 mps 745 mmHg 68%
17:00 +9°C° 0 mm 3 mps 745 mmHg 71%
18:00 +9°C° 0 mm 3 mps 745 mmHg 74%
19:00 +8°C° 0 mm 3 mps 745 mmHg 78%
20:00 +8°C° 0 mm 3 mps 745 mmHg 82%
21:00 +7°C° 0 mm 3 mps 745 mmHg 84%
22:00 +7°C° 0 mm 3 mps 744 mmHg 87%
23:00 +7°C° 0 mm 3 mps 744 mmHg 89%

Day after tomorrow, 20 April, Tuesday

Time Temperature Precipitation Wind Pressure Humidity
00:00 +5°C° 0 mm 3 mps 744 mmHg 90%
01:00 +5°C° 0 mm 3 mps 743 mmHg 91%
02:00 +5°C° 0 mm 4 mps 743 mmHg 92%
03:00 +4°C° 0 mm 4 mps 743 mmHg 92%
04:00 +4°C° 0 mm 4 mps 742 mmHg 93%
05:00 +4°C° 0 mm 4 mps 742 mmHg 94%
06:00 +5°C° 0 mm 4 mps 742 mmHg 88%
07:00 +6°C° 0 mm 5 mps 741 mmHg 82%
08:00 +7°C° 0 mm 5 mps 741 mmHg 76%
09:00 +8°C° 0 mm 6 mps 740 mmHg 72%
10:00 +9°C° 0 mm 6 mps 740 mmHg 68%
11:00 +10°C° 0 mm 7 mps 739 mmHg 64%
12:00 +9°C° 0.9 mm 7 mps 738 mmHg 72%
13:00 +8°C° 0.9 mm 7 mps 737 mmHg 81%
14:00 +6°C° 0.9 mm 7 mps 736 mmHg 90%
15:00 +6°C° 1.6 mm 7 mps 735 mmHg 90%
16:00 +6°C° 1.6 mm 7 mps 734 mmHg 91%
17:00 +6°C° 1.6 mm 7 mps 733 mmHg 91%
18:00 +5°C° 0.8 mm 7 mps 733 mmHg 90%
19:00 +5°C° 0.8 mm 7 mps 733 mmHg 90%
20:00 +5°C° 0.8 mm 6 mps 732 mmHg 89%
21:00 +4°C° 0.2 mm 6 mps 732 mmHg 90%
22:00 +4°C° 0.2 mm 6 mps 732 mmHg 91%
23:00 +4°C° 0.2 mm 6 mps 732 mmHg 92%

21 April, Wednesday

Time Temperature Precipitation Wind Pressure Humidity
00:00 +4°C° 0 mm 6 mps 733 mmHg 92%
01:00 +3°C° 0 mm 7 mps 734 mmHg 92%
02:00 +3°C° 0 mm 7 mps 734 mmHg 93%
03:00 +3°C° 0 mm 7 mps 735 mmHg 92%
04:00 +2°C° 0 mm 7 mps 736 mmHg 91%
05:00 +2°C° 0 mm 7 mps 737 mmHg 90%
06:00 +2°C° 0 mm 6 mps 738 mmHg 88%
07:00 +2°C° 0 mm 6 mps 738 mmHg 86%
08:00 +2°C° 0 mm 6 mps 739 mmHg 85%
09:00 +3°C° 0 mm 6 mps 740 mmHg 80%
10:00 +4°C° 0 mm 6 mps 741 mmHg 76%
11:00 +4°C° 0 mm 6 mps 741 mmHg 72%
12:00 +6°C° 0 mm 5 mps 742 mmHg 70%
13:00 +6°C° 0 mm 5 mps 742 mmHg 68%
14:00 +7°C° 0 mm 4 mps 743 mmHg 66%
15:00 +7°C° 0 mm 4 mps 743 mmHg 66%
16:00 +8°C° 0 mm 3 mps 743 mmHg 67%
17:00 +8°C° 0 mm 3 mps 744 mmHg 67%
18:00 +8°C° 0 mm 3 mps 744 mmHg 70%
19:00 +7°C° 0 mm 3 mps 745 mmHg 73%
20:00 +7°C° 0 mm 3 mps 745 mmHg 76%
21:00 +5°C° 0 mm 3 mps 745 mmHg 79%
22:00 +4°C° 0 mm 3 mps 746 mmHg 81%
23:00 +4°C° 0 mm 3 mps 746 mmHg 84%

22 April, Thursday

Time Temperature Precipitation Wind Pressure Humidity
00:00 +4°C° 0 mm 3 mps 746 mmHg 83%
01:00 +4°C° 0 mm 3 mps 746 mmHg 83%
02:00 +4°C° 0 mm 3 mps 746 mmHg 82%
03:00 +4°C° 0 mm 3 mps 747 mmHg 84%
04:00 +5°C° 0 mm 3 mps 747 mmHg 85%
05:00 +5°C° 0 mm 3 mps 747 mmHg 86%
06:00 +6°C° 0 mm 4 mps 747 mmHg 84%
07:00 +7°C° 0 mm 4 mps 747 mmHg 82%
08:00 +8°C° 0 mm 5 mps 748 mmHg 80%
09:00 +10°C° 0.2 mm 5 mps 748 mmHg 74%
10:00 +12°C° 0.2 mm 5 mps 748 mmHg 67%
11:00 +14°C° 0.2 mm 6 mps 748 mmHg 61%
12:00 +14°C° 0.5 mm 5 mps 748 mmHg 59%
13:00 +14°C° 0.5 mm 5 mps 748 mmHg 57%
14:00 +15°C° 0.5 mm 5 mps 748 mmHg 55%
15:00 +14°C° 0.4 mm 5 mps 748 mmHg 59%
16:00 +14°C° 0.4 mm 4 mps 748 mmHg 62%
17:00 +13°C° 0.4 mm 4 mps 748 mmHg 65%
18:00 +12°C° 0.1 mm 4 mps 748 mmHg 72%
19:00 +11°C° 0.1 mm 3 mps 748 mmHg 78%
20:00 +10°C° 0.1 mm 3 mps 748 mmHg 84%
21:00 +9°C° 0.1 mm 3 mps 748 mmHg 86%
22:00 +9°C° 0.1 mm 3 mps 748 mmHg 87%
23:00 +8°C° 0.1 mm 3 mps 748 mmHg 88%

23 April, Friday

Time Temperature Precipitation Wind Pressure Humidity
00:00 +8°C° 0 mm 3 mps 748 mmHg 89%
01:00 +7°C° 0 mm 3 mps 748 mmHg 90%
02:00 +7°C° 0 mm 3 mps 748 mmHg 91%
03:00 +7°C° 0 mm 3 mps 748 mmHg 92%
04:00 +7°C° 0 mm 3 mps 748 mmHg 93%
05:00 +5°C° 0 mm 3 mps 748 mmHg 94%
06:00 +7°C° 0 mm 4 mps 748 mmHg 87%
07:00 +10°C° 0 mm 4 mps 748 mmHg 81%
08:00 +10°C° 0 mm 5 mps 749 mmHg 74%
09:00 +12°C° 0 mm 5 mps 749 mmHg 69%
10:00 +14°C° 0 mm 5 mps 749 mmHg 63%
11:00 +15°C° 0 mm 6 mps 749 mmHg 58%
12:00 +15°C° 0 mm 5 mps 748 mmHg 55%
13:00 +16°C° 0 mm 5 mps 748 mmHg 52%
14:00 +17°C° 0 mm 5 mps 747 mmHg 49%
15:00 +16°C° 0.2 mm 5 mps 747 mmHg 52%
16:00 +17°C° 0.2 mm 4 mps 747 mmHg 55%
17:00 +15°C° 0.2 mm 4 mps 747 mmHg 58%
18:00 +14°C° 0.2 mm 3 mps 747 mmHg 65%
19:00 +12°C° 0.2 mm 3 mps 747 mmHg 71%
20:00 +11°C° 0.2 mm 3 mps 747 mmHg 77%
21:00 +10°C° 0.1 mm 3 mps 747 mmHg 79%
22:00 +10°C° 0.1 mm 3 mps 747 mmHg 81%
23:00 +9°C° 0.1 mm 3 mps 747 mmHg 82%
Show more